Change the Weather History Date:

Friday, May 3, 2013

  Actual Average Record
Temperature  
Mean Temperature 69 °F 71 °F  
Max Temperature 72 °F 84 °F 93 °F (2007)
Min Temperature 65 °F 57 °F 46 °F (1999)
Degree Days  
Heating Degree Days 0 0  
Month to date heating degree days 0 0  
Since 1 July heating degree days 1124 1303  
Cooling Degree Days 4 6  
Month to date cooling degree days 18 18  
Year to date cooling degree days 303 200  
Growing Degree Days 18 (Base 50)    
Moisture  
Dew Point 64 °F    
Average Humidity 87    
Maximum Humidity 93    
Minimum Humidity 73    
Precipitation  
Precipitation 0.10 in 0.06 in 0.21 in (2014)
Month to date precipitation 1.72 0.18  
Year to date precipitation 9.26 14.66  
Sea Level Pressure  
Sea Level Pressure 29.83 in    
Wind  
Wind Speed 7 mph (ENE)    
Max Wind Speed 15 mph    
Max Gust Speed 25 mph    
T = Trace of Precipitation, MM = Missing Value Source: NWS Daily Summary

Daily Weather History Graph

Daily Weather History Graph

Search for Another Location

Airport or City:

Trip Planner

Search our weather history database for the weather conditions in past years. The results will help you decide how hot, cold, wet, or windy it might be!

Date:

Astronomy

May. 03, 2013 Rise Set
Actual Time 6:48 AM EDT 8:10 PM EDT
Civil Twilight 6:22 AM EDT 8:36 PM EDT
Nautical Twilight 5:52 AM EDT 9:06 PM EDT
Astronomical Twilight 5:21 AM EDT 9:37 PM EDT
Moon 2:43 AM EDT (5/3) 2:30 PM EDT (5/3)
Length of Visible Light 14h 13m
Length of Day
13h 22m
Last Quarter, 37% of the Moon is Illuminated
May 3
Last Quarter
May 9
New
May 18
First Quarter
May 25
Full
May 31
Last Quarter

Hourly Weather History & Observations

Time (EDT) Temp. Dew Point Humidity Pressure Visibility Wind Dir Wind Speed Gust Speed Precip Events Conditions
12:53 AM 66.9 °F 64.9 °F 93% 29.85 in - NE 5.8 mph - 0.02 in   Unknown
1:53 AM 66.9 °F 64.9 °F 93% 29.82 in - ENE 5.8 mph 16.1 mph 0.01 in   Unknown
2:53 AM 66.9 °F 64.9 °F 93% 29.81 in - ENE 4.6 mph - N/A   Unknown
3:53 AM 68.0 °F 64.9 °F 90% 29.80 in - Variable 5.8 mph - 0.03 in   Unknown
4:53 AM 66.9 °F 64.9 °F 93% 29.80 in - ENE 5.8 mph - 0.01 in   Unknown
5:53 AM 66.9 °F 64.9 °F 93% 29.81 in - ENE 5.8 mph - N/A   Unknown
6:53 AM 66.9 °F 64.0 °F 90% 29.82 in - Variable 5.8 mph - 0.01 in   Unknown
7:53 AM 66.9 °F 64.9 °F 93% 29.82 in - NE 6.9 mph - N/A   Unknown
8:53 AM 68.0 °F 64.9 °F 90% 29.83 in - ENE 5.8 mph - N/A   Unknown
9:53 AM 69.1 °F 66.0 °F 90% 29.84 in - ENE 5.8 mph - N/A   Unknown
10:53 AM 68.0 °F 64.9 °F 90% 29.85 in - Variable 4.6 mph - 0.02 in   Unknown
11:53 AM 70.0 °F 66.9 °F 90% 29.86 in - ENE 5.8 mph - 0.01 in   Unknown
12:53 PM 70.0 °F 66.9 °F 90% 29.85 in - NE 8.1 mph - N/A   Unknown
1:53 PM 70.0 °F 66.0 °F 87% 29.84 in - ENE 11.5 mph 24.2 mph N/A   Unknown
2:53 PM 71.1 °F 66.9 °F 87% 29.83 in - ENE 8.1 mph - 0.01 in   Unknown
3:53 PM 72.0 °F 64.0 °F 76% 29.81 in - East 10.4 mph 18.4 mph N/A   Unknown
4:53 PM 71.1 °F 64.0 °F 78% 29.81 in - East 11.5 mph 24.2 mph N/A   Unknown
5:53 PM 71.1 °F 63.0 °F 75% 29.82 in - East 9.2 mph 20.7 mph N/A   Unknown
6:53 PM 69.1 °F 63.0 °F 81% 29.83 in - ENE 9.2 mph - N/A   Unknown
7:53 PM 66.9 °F 63.0 °F 87% 29.82 in - ENE 9.2 mph 16.1 mph N/A   Unknown
8:53 PM 66.0 °F 60.1 °F 81% 29.82 in - ENE 11.5 mph 18.4 mph N/A   Unknown
9:53 PM 64.9 °F 60.1 °F 84% 29.83 in - ENE 4.6 mph - N/A   Unknown
10:53 PM 64.9 °F 61.0 °F 87% 29.84 in - NE 4.6 mph - N/A   Unknown
11:53 PM 66.0 °F 61.0 °F 84% 29.84 in - NE 4.6 mph - N/A   Unknown